{"data":{"norad_id":61603,"intl_designator":"2024-188K","name":"ONEWEB-0697","alt_names":[],"object_type":"PAYLOAD","status":"ACTIVE","operator":null,"country":"UK","launch_date":"2024-10-20","launch_site_code":"AFWTR","launch_vehicle":null,"mission":null,"orbit_class":"UNKNOWN","rcs_meters":null,"size_class":null,"mass_kg":null,"dimensions":null,"purposes":["comms"],"wikipedia_slug":null,"has_3d_model":false,"image_url":null,"decayed_at":null,"tle_current":{"epoch":"2026-09-19T14:29:27.628800Z","epoch_age_seconds":95731,"freshness":"FRESH","line1":"1 61603U 24188K   26262.60379200 -.00000201  00000+0 -60154-3 0  9997","line2":"2 61603  87.8967   2.2969 0001103  92.6377 267.4877 13.11416371 96824","mean_motion":13.11416371,"eccentricity":0.0001103,"inclination_deg":87.8967,"raan_deg":2.2969,"arg_perigee_deg":92.6377,"mean_anomaly_deg":267.4877,"bstar":-0.00060154,"rev_number":9682,"period_min":109.80494310148,"perigee_km":1216.8470956497,"apogee_km":1218.5227339641,"semimajor_km":7595.8219148069,"source":"CELESTRAK","updated_at":"2026-09-20T09:00:44.799970Z"}}}